Flag for Switzerland Weather past 2 weeks in Buchs, St. Gallen, Switzerland

Now
52 °F

Cool.


Feels Like: 52 °F
Forecast: 52 / 58 °F
Wind: No wind

Location: Vaduz

Current Time: May 25, 2015 at 6:29:19 AM

Latest Report: May 25, 2015 at 4:00 AM


Visibility: N/A

Pressure: 30.04 "Hg

Humidity: 91%

Dew point: 50 °F

Location of BuchsLocation

Historic Weather in Buchs — Graph

°F

Buchs temperature yesterday

Maximum temperature yesterday: 63 °F (at 4:00 PM)
Minimum temperature yesterday: 49 °F (at 6:00 AM)
Average temperature yesterday: 56 °F

Past Weeks' High & Low Weather Summary

 TemperatureHumidityPressure
High84 °F (May 12, 3:00 PM)96% (May 10, 6:00 AM)30.39 "Hg (May 10, 6:00 AM)
Low41 °F (May 21, 4:00 AM)22% (May 12, 3:00 PM)29.72 "Hg (May 18, 6:00 PM)
Average58 °F72%30.08 "Hg
* Reported May 10 4:00 AM — May 25 4:00 AM, Buchs, Weather by CustomWeather, © 2015

Note: Actual official high and low records may vary slightly from our data, if they occured in-between our weather recording intervals... More about our weather records

Advertising

Buchs weather history for previous 24 hours

 ConditionsComfort  
Time TempWeatherWind HumidityBarometerVisibility
4:00 AM
Mon, May 25
52 °FCool.No wind91%30.04 "HgN/A
3:00 AM53 °FCool.No wind88%30.03 "HgN/A
2:00 AM53 °FCool.No wind87%30.04 "Hg5 mi
1:00 AM54 °FCool.No wind84%30.05 "HgN/A
12:00 AM54 °FCool.1 mph90%30.05 "HgN/A
10:00 PM
Sun, May 24
55 °FCool.1 mph89%30.04 "HgN/A
9:00 PM57 °FCool.No wind88%30.03 "HgN/A
8:00 PM59 °FOvercast.No wind73%30.02 "Hg6 mi
7:00 PM59 °FCool.1 mph78%30.01 "HgN/A
6:00 PM61 °FRefreshingly cool.3 mph60%30.00 "HgN/A
5:00 PM62 °FOvercast.6 mph57%30.00 "Hg5 mi
4:00 PM63 °FMild.5 mph59%30.01 "HgN/A
3:00 PM62 °FRefreshingly cool.6 mph59%30.02 "HgN/A
2:00 PM61 °FOvercast.6 mph55%30.03 "Hg4 mi
1:00 PM60 °FCool.5 mph65%30.05 "HgN/A
12:00 PM59 °FCool.6 mph65%30.06 "HgN/A
11:00 AM55 °FFog.2 mph71%30.08 "Hg4 mi
10:00 AM53 °FCool.1 mph71%30.09 "HgN/A
9:00 AM52 °FCool.No wind80%30.08 "HgN/A
8:00 AM52 °FFog.2 mph77%30.08 "Hg4 mi
7:00 AM50 °FCool.1 mph85%30.08 "HgN/A
6:00 AM49 °FCool.1 mph91%30.08 "HgN/A
Weather by CustomWeather, © 2015

See weather overviewHow to use our weather pages